Weather in Lạng Sơn

Vietnam     21°51′20″N   106°46′06″E
temp.,
°C
wind,
m/s
gust,
m/s
humid.,
%
clouds,
%
prec.,
mm/h
press.,
hPa
HPBL,
m
27 january, wed
wed2701:00+15sse119019 0.0 101523
04:00+14e119148 0.0 101523
07:00+14ene119334 0.0 101723
10:00+22sse356220 0.0 1018985
13:00+22s356157 0.1 10151105
16:00+24ssw355580 0.0 10141311
19:00+19se247383 0.0 1015134
22:00+16ese128747 0.0 101732
28 january, thu
thu2801:00+15e119025 0.0 101823
04:00+16nne248564 0.1 1019220
07:00+14nne487782 0.1 1022581
10:00+13nne5869100 0.0 1025644
13:00+13nne4867100 0.0 1023598
16:00+12nne4771100 0.1 1022509
19:00+12nne4771100 0.3 1024483
22:00+12nne3667100 0.0 1025473
29 january, fri
fri2901:00+12nne366886 0.0 1024391
04:00+12nne366589 0.0 1023396
07:00+12ne246395 0.0 1024357
10:00+13nne2357100 0.0 1026374
13:00+20sse254689 0.0 10221148
16:00+20ssw454926 0.0 10191279
19:00+16sse246227 0.0 1020156
22:00+14sse11710 0.0 102124
30 january, sat
sat3001:00+13sse127914 0.0 102027
04:00+13se118455 0.0 101932
07:00+14ese188678 0.0 1021411
10:00+18se577392 0.1 1022679
13:00+18se477397 0.1 1020756
16:00+18se3673100 0.0 1019741
19:00+17se267797 0.0 1020393
22:00+14se129111 0.0 102158
31 january, sun
sun3101:00+15se188839 0.0 1021400
04:00+15se019199 0.0 101924
07:00+15ese179299 0.0 1021415
10:00+20sse476688 0.0 1022856
13:00+22sse465690 0.1 10201261
16:00+19se4771100 0.1 1018694
19:00+18se2875100 0.1 1019545
22:00+16sse138469 0.0 1020159